TimeCST,TemperatureF,Dew PointF,Humidity,Sea Level PressureIn,VisibilityMPH,Wind Direction,Wind SpeedMPH,Gust SpeedMPH,PrecipitationIn,Events,Conditions,WindDirDegrees,DateUTC
12:15 AM,41.2,22.1,47,30.34,10.0,Calm,Calm,-,N/A,,Clear,0,2012-12-05 06:15:00
12:35 AM,41.0,22.3,47,30.34,10.0,WSW,3.5,-,N/A,,Clear,240,2012-12-05 06:35:00
12:55 AM,39.9,22.1,49,30.33,10.0,Calm,Calm,-,N/A,,Clear,0,2012-12-05 06:55:00
1:15 AM,38.8,22.1,51,30.34,10.0,Calm,Calm,-,N/A,,Clear,0,2012-12-05 07:15:00
1:55 AM,36.1,22.5,58,30.33,10.0,Calm,Calm,-,N/A,,Clear,0,2012-12-05 07:55:00
2:15 AM,36.7,22.3,56,30.33,10.0,Calm,Calm,-,N/A,,Clear,0,2012-12-05 08:15:00
2:35 AM,36.7,22.5,56,30.33,10.0,Calm,Calm,-,N/A,,Clear,0,2012-12-05 08:35:00
2:55 AM,36.1,22.8,58,30.33,10.0,Calm,Calm,-,N/A,,Clear,0,2012-12-05 08:55:00
3:15 AM,36.1,22.6,58,30.33,10.0,Calm,Calm,-,N/A,,Clear,0,2012-12-05 09:15:00
3:35 AM,36.0,22.8,59,30.32,10.0,Calm,Calm,-,N/A,,Clear,0,2012-12-05 09:35:00
3:55 AM,35.6,22.8,60,30.31,10.0,Calm,Calm,-,N/A,,Clear,0,2012-12-05 09:55:00
4:15 AM,35.6,23.0,60,30.31,10.0,NNW,3.5,-,N/A,,Clear,340,2012-12-05 10:15:00
4:35 AM,34.9,22.6,61,30.30,10.0,Calm,Calm,-,N/A,,Clear,0,2012-12-05 10:35:00
4:55 AM,35.6,23.0,60,30.30,10.0,Calm,Calm,-,N/A,,Clear,0,2012-12-05 10:55:00
5:15 AM,36.0,23.0,59,30.29,10.0,Calm,Calm,-,N/A,,Clear,0,2012-12-05 11:15:00
5:35 AM,34.5,22.3,61,30.29,10.0,Calm,Calm,-,N/A,,Clear,0,2012-12-05 11:35:00
5:55 AM,34.2,22.3,62,30.29,10.0,Calm,Calm,-,N/A,,Clear,0,2012-12-05 11:55:00
6:15 AM,33.8,22.1,62,30.29,10.0,Calm,Calm,-,N/A,,Clear,0,2012-12-05 12:15:00
6:35 AM,32.2,22.1,66,30.30,10.0,Calm,Calm,-,N/A,,Clear,0,2012-12-05 12:35:00
6:55 AM,32.0,22.6,68,30.30,10.0,Calm,Calm,-,N/A,,Clear,0,2012-12-05 12:55:00
8:35 AM,37.9,24.1,57,30.30,10.0,Calm,Calm,-,N/A,,Clear,0,2012-12-05 14:35:00
8:55 AM,40.3,24.4,53,30.31,10.0,Calm,Calm,-,N/A,,Clear,0,2012-12-05 14:55:00
9:15 AM,43.9,24.3,46,30.31,10.0,South,4.6,-,N/A,,Clear,190,2012-12-05 15:15:00
9:35 AM,47.1,23.7,40,30.30,10.0,South,5.8,-,N/A,,Clear,170,2012-12-05 15:35:00
9:55 AM,50.5,22.6,34,30.30,10.0,South,10.4,-,N/A,,Clear,170,2012-12-05 15:55:00
10:15 AM,52.2,23.0,32,30.30,10.0,South,8.1,-,N/A,,Clear,170,2012-12-05 16:15:00
10:35 AM,54.0,23.2,30,30.29,10.0,South,11.5,-,N/A,,Clear,180,2012-12-05 16:35:00
10:55 AM,56.3,23.0,28,30.28,10.0,South,11.5,-,N/A,,Clear,180,2012-12-05 16:55:00
11:15 AM,57.6,22.8,26,30.27,10.0,South,11.5,-,N/A,,Clear,180,2012-12-05 17:15:00
11:35 AM,58.6,24.6,27,30.26,10.0,SSW,12.7,-,N/A,,Clear,200,2012-12-05 17:35:00
11:55 AM,59.9,25.5,27,30.25,10.0,South,12.7,18.4,N/A,,Clear,190,2012-12-05 17:55:00
12:15 PM,61.0,26.6,27,30.23,10.0,SSW,13.8,-,N/A,,Clear,200,2012-12-05 18:15:00
12:35 PM,61.9,27.1,27,30.21,10.0,South,11.5,19.6,N/A,,Clear,180,2012-12-05 18:35:00
12:55 PM,63.1,27.9,26,30.18,10.0,SSW,12.7,18.4,N/A,,Clear,200,2012-12-05 18:55:00
1:15 PM,64.6,28.0,25,30.17,10.0,SSW,9.2,-,N/A,,Clear,210,2012-12-05 19:15:00
1:35 PM,65.5,28.4,25,30.16,10.0,South,13.8,-,N/A,,Clear,190,2012-12-05 19:35:00
1:55 PM,66.0,29.1,25,30.15,10.0,South,12.7,-,N/A,,Clear,190,2012-12-05 19:55:00
2:15 PM,66.2,29.1,25,30.13,10.0,SSW,13.8,20.7,N/A,,Clear,200,2012-12-05 20:15:00
2:35 PM,65.5,28.6,25,30.11,10.0,South,12.7,-,N/A,,Clear,190,2012-12-05 20:35:00
2:55 PM,66.6,28.9,24,30.10,10.0,South,13.8,17.3,N/A,,Clear,190,2012-12-05 20:55:00
3:15 PM,67.5,28.8,24,30.09,10.0,SSW,13.8,-,N/A,,Clear,200,2012-12-05 21:15:00
3:35 PM,67.8,28.9,23,30.08,10.0,SSW,13.8,20.7,N/A,,Clear,200,2012-12-05 21:35:00
3:55 PM,68.2,28.9,23,30.08,10.0,South,11.5,-,N/A,,Clear,190,2012-12-05 21:55:00
4:15 PM,68.0,29.3,24,30.07,10.0,SSW,12.7,-,N/A,,Clear,210,2012-12-05 22:15:00
4:35 PM,67.6,29.3,24,30.07,10.0,SSW,11.5,17.3,N/A,,Clear,200,2012-12-05 22:35:00
4:55 PM,67.1,29.3,24,30.06,10.0,SSW,10.4,-,N/A,,Clear,200,2012-12-05 22:55:00
5:15 PM,66.0,29.3,25,30.06,10.0,SSW,10.4,-,N/A,,Clear,210,2012-12-05 23:15:00
5:35 PM,64.0,29.5,27,30.05,10.0,SSW,8.1,-,N/A,,Clear,210,2012-12-05 23:35:00
5:55 PM,61.3,29.3,30,30.05,10.0,SSW,8.1,-,N/A,,Clear,210,2012-12-05 23:55:00
6:15 PM,59.5,29.5,32,30.05,10.0,SSW,6.9,-,N/A,,Clear,210,2012-12-06 00:15:00
6:35 PM,57.2,29.1,34,30.05,10.0,SSW,6.9,-,N/A,,Clear,200,2012-12-06 00:35:00
6:55 PM,54.9,28.9,37,30.05,10.0,South,4.6,-,N/A,,Clear,180,2012-12-06 00:55:00
7:15 PM,53.4,28.9,39,30.04,10.0,SSW,4.6,-,N/A,,Clear,200,2012-12-06 01:15:00
7:35 PM,51.8,28.9,41,30.04,10.0,South,5.8,-,N/A,,Clear,190,2012-12-06 01:35:00
7:55 PM,50.7,28.6,42,30.04,10.0,South,6.9,-,N/A,,Clear,190,2012-12-06 01:55:00
8:15 PM,49.1,28.2,44,30.04,10.0,South,6.9,-,N/A,,Clear,190,2012-12-06 02:15:00
8:35 PM,48.2,27.7,45,30.03,10.0,SSW,6.9,-,N/A,,Clear,200,2012-12-06 02:35:00
8:55 PM,48.4,27.7,45,30.03,10.0,SSW,5.8,-,N/A,,Clear,210,2012-12-06 02:55:00
9:15 PM,47.7,27.5,46,30.03,10.0,SSW,5.8,-,N/A,,Clear,200,2012-12-06 03:15:00
9:35 PM,47.5,27.5,46,30.03,10.0,SW,5.8,-,N/A,,Clear,220,2012-12-06 03:35:00
9:55 PM,47.1,27.9,47,30.02,10.0,SW,4.6,-,N/A,,Clear,230,2012-12-06 03:55:00
10:15 PM,45.9,27.9,49,30.01,10.0,SW,4.6,-,N/A,,Clear,230,2012-12-06 04:15:00
10:35 PM,45.7,28.0,50,30.01,10.0,SW,5.8,-,N/A,,Clear,230,2012-12-06 04:35:00
10:55 PM,45.7,28.2,51,30.01,10.0,SSW,5.8,-,N/A,,Clear,210,2012-12-06 04:55:00
11:15 PM,45.3,28.0,51,30.00,10.0,SSW,5.8,-,N/A,,Clear,200,2012-12-06 05:15:00
11:35 PM,44.6,28.6,53,30.00,10.0,SW,5.8,-,N/A,,Clear,230,2012-12-06 05:35:00
11:55 PM,44.1,28.6,55,29.99,7.0,WSW,4.6,-,N/A,,Clear,240,2012-12-06 05:55:00